Home   Weather   Campo Grande   Past weeks

Flag for Brazil Past Weather in Campo Grande, Mato Grosso Do Sul, Brazil — Yesterday and Last 2 Weeks

Now
72 °F

Passing clouds.


Feels Like: 71 °F
Forecast: 66 / 76 °F
Wind: 5 mph from Northeast

Location: Campo Grande Aeroporto

Current Time: Jan 23, 2017 at 1:54:38 am

Latest Report: Jan 23, 2017 at 1:00 am


Visibility: N/A

Pressure: 29.92 "Hg (28.18 "Hg at 516m altitude)

Humidity: 83%

Dew Point: 66 °F

Location of Campo GrandeLocation

Past Weather in Campo Grande — Graph

°F

Campo Grande Temperature Yesterday

Maximum temperature yesterday: 84 °F (at 1:00 pm)
Minimum temperature yesterday: 66 °F (at 5:00 am)
Average temperature yesterday: 76 °F

High & Low Weather Summary for the Past Weeks

 TemperatureHumidityPressure
High93 °F (Jan 8, 2:08 pm)100% (Jan 19, 5:00 pm)30.07 "Hg (Jan 19, 5:00 pm)
Low36 °F (Jan 20, 9:00 pm)17% (Jan 14, 5:00 pm)29.71 "Hg (Jan 17, 4:00 pm)
Average77 °F76%29.89 "Hg
* Reported Jan 8 12:00 am — Jan 23 12:00 am, Campo Grande, Weather by CustomWeather, © 2017

Note: Actual official high and low records may vary slightly from our data, if they occured in-between our weather recording intervals... More about our weather records

Advertising

Campo Grande Weather History for the Previous 24 Hours

Scroll right to see more
 ConditionsComfort  
Time TempWeatherWind HumidityBarometerVisibility
12:00 am
Mon, Jan 23
72 °FPassing clouds.13 mph83%29.92 "HgN/A
11:00 pm
Sun, Jan 22
75 °FPassing clouds.7 mph78%29.92 "HgN/A
10:00 pm75 °FPassing clouds.6 mph78%29.92 "HgN/A
9:00 pm75 °FPassing clouds.3 mph78%29.89 "HgN/A
8:00 pm77 °FPassing clouds.3 mph74%29.89 "HgN/A
7:00 pm79 °FPassing clouds.6 mph70%29.86 "HgN/A
6:00 pm82 °FScattered clouds.3 mph58%29.86 "HgN/A
5:00 pm84 °FScattered clouds.3 mph55%29.86 "HgN/A
4:20 pm81 °FThundershowers. Scattered clouds.6 mph62%29.86 "HgN/A
4:00 pm79 °FThunderstorms. Partly sunny.13 mph65%29.89 "HgN/A
3:18 pm84 °FThunderstorms. Partly sunny.10 mph58%29.89 "HgN/A
3:00 pm84 °FThundershowers. Partly sunny.10 mph58%29.89 "HgN/A
2:00 pm84 °FThundershowers. Partly sunny.12 mph58%29.92 "HgN/A
1:00 pm84 °FThundershowers. Broken clouds.12 mph58%29.95 "HgN/A
12:00 pm82 °FScattered showers. Broken clouds.10 mph62%29.98 "HgN/A
11:00 am81 °FScattered showers. Broken clouds.9 mph66%30.01 "HgN/A
10:00 am79 °FScattered clouds.10 mph70%30.01 "HgN/A
9:00 am75 °FScattered clouds.6 mph78%30.01 "HgN/A
8:00 am73 °FBroken clouds.5 mph78%N/AN/A
7:00 am68 °FBroken clouds.5 mph94%29.98 "HgN/A
6:00 am66 °FClear.6 mph94%29.95 "Hg10 mi
5:00 am66 °FPassing clouds.2 mph94%29.95 "HgN/A
4:00 am68 °FPassing clouds.5 mph88%29.95 "HgN/A
3:00 am68 °FPassing clouds.6 mph94%29.92 "HgN/A
2:00 am70 °FPassing clouds.3 mph88%29.95 "HgN/A
1:00 am70 °FPassing clouds.5 mph88%29.98 "HgN/A
Weather by CustomWeather, © 2017

See weather overviewHow to use our weather pages